231  
ASUS41 KRLX 091410  
RWRRLX  
REGIONAL WEATHER ROUNDUP  
NATIONAL WEATHER SERVICE CHARLESTON WV  
1000 AM EDT SUN AUG 09 2020  
 
NOTE: "FAIR" INDICATES FEW OR NO CLOUDS BELOW 12,000 FEET WITH NO  
SIGNIFICANT WEATHER AND/OR S TO VISIBILITY
.  
 
WVZ003-091500-  
NORTHERN PANHANDLE OF WEST VIRGINIA  
 
CITY SKY/WX TMP DP RH WIND PRES REMARKS
 
WHEELING SUNNY 77 61 57 SW5 30.20S  

 
 
WVZ009-091500-  
NORTHWEST WEST VIRGINIA  
 
CITY SKY/WX TMP DP RH WIND PRES REMARKS
 
PARKERSBURG MOSUNNY 75 66 73 CALM 30.20S  

 
 
WVZ006-091500-  
WESTERN WEST VIRGINIA  
 
CITY SKY/WX TMP DP RH WIND PRES REMARKS
 
HUNTINGTON SUNNY 75 67 76 CALM 30.19S  

 
 
WVZ015-091500-  
WEST CENTRAL WEST VIRGINIA  
 
CITY SKY/WX TMP DP RH WIND PRES REMARKS
 
CHARLESTON SUNNY 74 65 73 CALM 30.20S  

 
 
WVZ509-031-039-091500-  
NORTH CENTRAL WEST VIRGINIA  
 
CITY SKY/WX TMP DP RH WIND PRES REMARKS
 
MORGANTOWN SUNNY 75 63 66 S3 30.22S  
CLARKSBURG SUNNY 77 66 68 VRB3 30.21F  
BUCKHANNON SUNNY 77 70 78 VRB5 30.23S  

 
 
WVZ515-516-025-034-042-507-091500-  
SOUTHERN WEST VIRGINIA  
 
CITY SKY/WX TMP DP RH WIND PRES REMARKS
 
BECKLEY SUNNY 75 64 68 CALM 30.27F  
LOGAN FAIR 75 70 83 CALM 30.23S  
PINEVILLE SUNNY 74 69 83 MISG 30.28F  
BLUEFIELD SUNNY 70 65 84 CALM 30.29S  
LEWISBURG MOSUNNY 66 66 100 CALM 30.27F  

 
 
WVZ525-526-091500-  
NORTHERN MOUNTAINS OF WEST VIRGINIA  
 
CITY SKY/WX TMP DP RH WIND PRES REMARKS
 
ELKINS MOSUNNY 69 62 78 CALM 30.26F  

 
 
WVZ502-504-052-091500-  
EASTERN PANHANDLE OF WEST VIRGINIA  
 
CITY SKY/WX TMP DP RH WIND PRES REMARKS
 
PETERSBURG NOT AVBL  
CUMBERLAND MOSUNNY 70 67 89 CALM 30.24S  
MARTINSBURG SUNNY 78 70 76 CALM 30.16S  

 
 
OHZ075-083-KYZ101-091500-  
SOUTHEAST OHIO/NORTHEAST KENTUCKY  
 
CITY SKY/WX TMP DP RH WIND PRES REMARKS
 
ATHENS SUNNY 76 65 68 CALM 30.19S  
JACKSON FAIR 73 66 78 CALM 30.20S  
ASHLAND MOSUNNY 72 70 94 CALM 30.19S  

 
 
 
CLICK HERE TO GO TO PREVIOUS BULLETINS.

The Nexlab WV Page
The Nexlab OH Page
The Nexlab KY Page
The Nexlab VA Page Main Text Page